Location: Oak Glen
(34.0495°N, 116.9470°E)
Time: 17:26:22
(UTC-08:00)

Tiangong 2 - Pass Details

Date: 10 October 2017
Orbit: 386 x 389 km, 42.8° (Epoch: 17 December)

Event Time Altitude Azimuth Distance (km) Brightness Sun altitude
Exits shadow 13:20:14 26° 42° (NE) 818 3.2 -24.3°
Drops below altitude 10° 13:21:50 10° 54° (NE) 1,419 4.7 -24.0°
Sets 13:23:57 0° 59° (ENE) 2,277 6.1 -23.5°
